Time,TemperatureF,DewpointF,PressureIn,WindDirection,WindDirectionDegrees,WindSpeedMPH,WindSpeedGustMPH,Humidity,HourlyPrecipIn,Conditions,Clouds,dailyrainin,SoftwareType,DateUTC
2013-09-10 00:12:00,54.7,53.0,30.21,WSW,258,0.0,0.0,95,0.00,,,0.00,weatherlink.com 1.10,2013-09-10 04:12:00,
2013-09-10 00:27:00,54.5,53.0,30.21,WSW,258,0.0,0.0,94,0.00,,,0.00,weatherlink.com 1.10,2013-09-10 04:27:00,
2013-09-10 00:42:00,54.6,53.0,30.21,WSW,258,0.0,0.0,94,0.00,,,0.00,weatherlink.com 1.10,2013-09-10 04:42:00,
2013-09-10 00:57:00,54.9,53.0,30.21,WSW,258,0.0,1.0,94,0.00,,,0.00,weatherlink.com 1.10,2013-09-10 04:57:00,
2013-09-10 01:12:00,55.0,53.0,30.21,WNW,289,0.0,1.0,93,0.00,,,0.00,weatherlink.com 1.10,2013-09-10 05:12:00,
2013-09-10 01:27:00,55.0,53.0,30.21,WNW,289,1.0,1.0,93,0.00,,,0.00,weatherlink.com 1.10,2013-09-10 05:27:00,
2013-09-10 01:42:00,55.2,53.0,30.21,WNW,285,0.0,1.0,92,0.00,,,0.00,weatherlink.com 1.10,2013-09-10 05:42:00,
2013-09-10 01:57:00,54.9,53.0,30.21,WNW,285,0.0,0.0,92,0.00,,,0.00,weatherlink.com 1.10,2013-09-10 05:57:00,
2013-09-10 02:12:00,54.8,53.0,30.21,SW,215,0.0,1.0,92,0.00,,,0.00,weatherlink.com 1.10,2013-09-10 06:12:00,
2013-09-10 02:27:00,55.1,53.0,30.20,SW,215,0.0,1.0,92,0.00,,,0.00,weatherlink.com 1.10,2013-09-10 06:27:00,
2013-09-10 02:42:00,54.8,53.0,30.20,SW,215,0.0,1.0,92,0.00,,,0.00,weatherlink.com 1.10,2013-09-10 06:42:00,
2013-09-10 02:57:00,54.8,53.0,30.21,SW,215,0.0,1.0,92,0.00,,,0.00,weatherlink.com 1.10,2013-09-10 06:57:00,
2013-09-10 03:12:00,54.8,53.0,30.21,SW,215,0.0,1.0,92,0.00,,,0.00,weatherlink.com 1.10,2013-09-10 07:12:00,
2013-09-10 03:27:00,54.3,52.0,30.20,SW,215,0.0,0.0,92,0.00,,,0.00,weatherlink.com 1.10,2013-09-10 07:27:00,
2013-09-10 03:42:00,53.8,52.0,30.20,SW,215,0.0,1.0,93,0.00,,,0.00,weatherlink.com 1.10,2013-09-10 07:42:00,
2013-09-10 03:57:00,53.4,52.0,30.20,SW,215,0.0,0.0,93,0.00,,,0.00,weatherlink.com 1.10,2013-09-10 07:57:00,
2013-09-10 04:12:00,52.9,51.0,30.19,SW,215,0.0,0.0,94,0.00,,,0.00,weatherlink.com 1.10,2013-09-10 08:12:00,
2013-09-10 04:27:00,53.0,52.0,30.19,SW,215,0.0,1.0,95,0.00,,,0.00,weatherlink.com 1.10,2013-09-10 08:27:00,
2013-09-10 04:42:00,52.7,51.0,30.20,SW,215,0.0,1.0,94,0.00,,,0.00,weatherlink.com 1.10,2013-09-10 08:42:00,
2013-09-10 04:57:00,53.2,52.0,30.20,SW,215,0.0,1.0,95,0.00,,,0.00,weatherlink.com 1.10,2013-09-10 08:57:00,
2013-09-10 05:12:00,54.7,54.0,30.19,SW,215,0.0,1.0,96,0.00,,,0.00,weatherlink.com 1.10,2013-09-10 09:12:00,
2013-09-10 05:27:00,57.5,57.0,30.19,South,191,2.0,2.0,97,0.00,,,0.00,weatherlink.com 1.10,2013-09-10 09:27:00,
2013-09-10 05:42:00,59.0,58.0,30.19,SSW,202,0.0,1.0,97,0.00,,,0.00,weatherlink.com 1.10,2013-09-10 09:42:00,
2013-09-10 06:13:00,61.4,59.0,30.20,SE,141,0.0,2.0,91,0.00,,,0.00,weatherlink.com 1.10,2013-09-10 10:13:00,
2013-09-10 06:28:00,62.7,59.0,30.20,SSW,205,1.0,4.0,87,0.00,,,0.00,weatherlink.com 1.10,2013-09-10 10:28:00,
2013-09-10 06:43:00,63.3,59.0,30.20,SE,143,0.0,2.0,86,0.00,,,0.00,weatherlink.com 1.10,2013-09-10 10:43:00,
2013-09-10 06:58:00,63.8,59.0,30.20,East,98,0.0,2.0,85,0.00,,,0.00,weatherlink.com 1.10,2013-09-10 10:58:00,
2013-09-10 07:13:00,64.2,60.0,30.20,SSE,162,2.0,4.0,85,0.00,,,0.00,weatherlink.com 1.10,2013-09-10 11:13:00,
2013-09-10 07:28:00,64.6,60.0,30.20,East,79,0.0,3.0,85,0.00,,,0.00,weatherlink.com 1.10,2013-09-10 11:28:00,
2013-09-10 07:43:00,65.1,60.0,30.20,NE,49,1.0,3.0,84,0.00,,,0.00,weatherlink.com 1.10,2013-09-10 11:43:00,
2013-09-10 07:58:00,65.4,61.0,30.20,SSW,193,0.0,4.0,84,0.00,,,0.00,weatherlink.com 1.10,2013-09-10 11:58:00,
2013-09-10 08:13:00,65.4,61.0,30.21,SW,221,3.0,4.0,85,0.00,,,0.00,weatherlink.com 1.10,2013-09-10 12:13:00,
2013-09-10 08:28:00,65.6,61.0,30.20,WNW,283,0.0,3.0,86,0.00,,,0.00,weatherlink.com 1.10,2013-09-10 12:28:00,
2013-09-10 08:43:00,65.5,62.0,30.20,South,169,1.0,3.0,87,0.00,,,0.00,weatherlink.com 1.10,2013-09-10 12:43:00,
2013-09-10 08:58:00,65.7,62.0,30.20,South,181,0.0,3.0,87,0.00,,,0.00,weatherlink.com 1.10,2013-09-10 12:58:00,
2013-09-10 09:13:00,65.9,62.0,30.21,SSW,207,0.0,4.0,86,0.00,,,0.00,weatherlink.com 1.10,2013-09-10 13:13:00,
2013-09-10 09:28:00,66.2,62.0,30.21,South,188,0.0,6.0,87,0.00,,,0.00,weatherlink.com 1.10,2013-09-10 13:28:00,
2013-09-10 09:43:00,66.8,63.0,30.21,South,188,1.0,6.0,87,0.00,,,0.00,weatherlink.com 1.10,2013-09-10 13:43:00,
2013-09-10 09:58:00,67.3,62.0,30.20,West,275,0.0,6.0,84,0.00,,,0.00,weatherlink.com 1.10,2013-09-10 13:58:00,
2013-09-10 10:13:00,67.7,63.0,30.20,SSE,155,0.0,7.0,84,0.00,,,0.00,weatherlink.com 1.10,2013-09-10 14:13:00,
2013-09-10 10:28:00,68.1,63.0,30.20,South,182,0.0,5.0,83,0.00,,,0.00,weatherlink.com 1.10,2013-09-10 14:28:00,
2013-09-10 10:43:00,68.1,63.0,30.20,NW,314,0.0,5.0,83,0.00,,,0.00,weatherlink.com 1.10,2013-09-10 14:43:00,
2013-09-10 10:58:00,68.5,63.0,30.19,South,169,1.0,6.0,83,0.00,,,0.00,weatherlink.com 1.10,2013-09-10 14:58:00,
2013-09-10 11:13:00,69.4,64.0,30.19,SW,219,3.0,7.0,82,0.00,,,0.00,weatherlink.com 1.10,2013-09-10 15:13:00,
2013-09-10 11:28:00,69.7,64.0,30.19,SSE,163,2.0,7.0,82,0.00,,,0.00,weatherlink.com 1.10,2013-09-10 15:28:00,
2013-09-10 11:43:00,69.3,64.0,30.19,WNW,290,1.0,6.0,82,0.00,,,0.00,weatherlink.com 1.10,2013-09-10 15:43:00,
2013-09-10 11:58:00,69.2,64.0,30.19,SW,227,4.0,7.0,83,0.00,,,0.00,weatherlink.com 1.10,2013-09-10 15:58:00,
2013-09-10 12:13:00,69.3,64.0,30.19,NW,318,0.0,8.0,83,0.00,,,0.00,weatherlink.com 1.10,2013-09-10 16:13:00,
2013-09-10 12:28:00,69.7,64.0,30.18,South,173,5.0,7.0,82,0.00,,,0.00,weatherlink.com 1.10,2013-09-10 16:28:00,
2013-09-10 12:44:00,70.2,65.0,30.18,ENE,77,1.0,6.0,82,0.00,,,0.00,weatherlink.com 1.10,2013-09-10 16:44:00,
2013-09-10 12:59:00,71.5,65.0,30.16,SSE,148,4.0,6.0,81,0.00,,,0.00,weatherlink.com 1.10,2013-09-10 16:59:00,
2013-09-10 13:14:00,72.4,65.0,30.14,North,352,3.0,10.0,77,0.00,,,0.00,weatherlink.com 1.10,2013-09-10 17:14:00,
2013-09-10 13:29:00,72.1,65.0,30.15,SW,232,2.0,10.0,77,0.00,,,0.00,weatherlink.com 1.10,2013-09-10 17:29:00,
2013-09-10 13:44:00,72.0,65.0,30.12,SSE,153,8.0,13.0,78,0.00,,,0.00,weatherlink.com 1.10,2013-09-10 17:44:00,
2013-09-10 13:59:00,73.3,66.0,30.11,South,191,3.0,10.0,77,0.00,,,0.00,weatherlink.com 1.10,2013-09-10 17:59:00,
2013-09-10 14:14:00,72.8,65.0,30.11,SSE,152,2.0,13.0,77,0.00,,,0.00,weatherlink.com 1.10,2013-09-10 18:14:00,
2013-09-10 14:29:00,73.2,65.0,30.11,SSW,211,3.0,9.0,76,0.00,,,0.00,weatherlink.com 1.10,2013-09-10 18:29:00,
2013-09-10 14:44:00,73.6,66.0,30.11,ESE,113,5.0,10.0,78,0.00,,,0.00,weatherlink.com 1.10,2013-09-10 18:44:00,
2013-09-10 14:59:00,74.0,66.0,30.11,West,259,1.0,10.0,75,0.00,,,0.00,weatherlink.com 1.10,2013-09-10 18:59:00,
2013-09-10 15:14:00,74.5,67.0,30.11,West,271,5.0,9.0,76,0.00,,,0.00,weatherlink.com 1.10,2013-09-10 19:14:00,
2013-09-10 15:30:00,73.4,66.0,30.12,SW,217,1.0,13.0,78,0.00,,,0.00,weatherlink.com 1.10,2013-09-10 19:30:00,
2013-09-10 15:44:00,72.1,66.0,30.13,SSW,197,1.0,6.0,80,0.00,,,0.00,weatherlink.com 1.10,2013-09-10 19:44:00,
2013-09-10 15:59:00,72.2,66.0,30.12,South,176,6.0,10.0,81,0.00,,,0.00,weatherlink.com 1.10,2013-09-10 19:59:00,
2013-09-10 16:14:00,72.2,66.0,30.13,South,173,1.0,13.0,80,0.00,,,0.00,weatherlink.com 1.10,2013-09-10 20:14:00,
2013-09-10 16:29:00,72.2,66.0,30.13,WNW,302,3.0,10.0,81,0.00,,,0.00,weatherlink.com 1.10,2013-09-10 20:29:00,
2013-09-10 16:44:00,72.1,66.0,30.12,SW,215,1.0,12.0,82,0.00,,,0.00,weatherlink.com 1.10,2013-09-10 20:44:00,
2013-09-10 16:59:00,72.3,67.0,30.12,SE,132,6.0,8.0,82,0.00,,,0.00,weatherlink.com 1.10,2013-09-10 20:59:00,
2013-09-10 17:14:00,72.3,67.0,30.12,WNW,296,3.0,7.0,82,0.00,,,0.00,weatherlink.com 1.10,2013-09-10 21:14:00,
2013-09-10 17:29:00,72.2,66.0,30.12,SSW,195,2.0,8.0,82,0.00,,,0.00,weatherlink.com 1.10,2013-09-10 21:29:00,
2013-09-10 17:44:00,72.0,66.0,30.12,South,176,1.0,6.0,82,0.00,,,0.00,weatherlink.com 1.10,2013-09-10 21:44:00,
2013-09-10 17:59:00,71.9,67.0,30.12,ESE,118,3.0,10.0,83,0.00,,,0.00,weatherlink.com 1.10,2013-09-10 21:59:00,
2013-09-10 18:14:00,71.5,67.0,30.12,WSW,243,2.0,9.0,84,0.00,,,0.00,weatherlink.com 1.10,2013-09-10 22:14:00,
2013-09-10 18:29:00,71.3,66.0,30.12,SSW,194,1.0,6.0,84,0.00,,,0.00,weatherlink.com 1.10,2013-09-10 22:29:00,
2013-09-10 18:44:00,70.8,66.0,30.12,East,95,1.0,7.0,85,0.00,,,0.00,weatherlink.com 1.10,2013-09-10 22:44:00,
2013-09-10 18:59:00,70.1,66.0,30.13,SW,230,3.0,10.0,86,0.00,,,0.00,weatherlink.com 1.10,2013-09-10 22:59:00,
2013-09-10 19:14:00,69.4,66.0,30.13,NW,307,1.0,8.0,88,0.00,,,0.00,weatherlink.com 1.10,2013-09-10 23:14:00,
2013-09-10 19:29:00,68.7,65.0,30.13,SSW,200,3.0,5.0,89,0.00,,,0.00,weatherlink.com 1.10,2013-09-10 23:29:00,
2013-09-10 19:44:00,68.3,65.0,30.13,East,88,2.0,4.0,90,0.00,,,0.00,weatherlink.com 1.10,2013-09-10 23:44:00,
2013-09-10 19:59:00,68.1,65.0,30.13,SSE,150,1.0,6.0,90,0.00,,,0.00,weatherlink.com 1.10,2013-09-10 23:59:00,
2013-09-10 20:14:00,67.9,65.0,30.13,South,190,0.0,4.0,90,0.00,,,0.00,weatherlink.com 1.10,2013-09-11 00:14:00,
2013-09-10 20:29:00,67.6,65.0,30.13,SE,126,6.0,6.0,91,0.00,,,0.00,weatherlink.com 1.10,2013-09-11 00:29:00,
2013-09-10 20:44:00,67.7,65.0,30.13,ENE,63,1.0,4.0,91,0.00,,,0.00,weatherlink.com 1.10,2013-09-11 00:44:00,
2013-09-10 20:59:00,67.9,65.0,30.13,West,271,1.0,8.0,90,0.00,,,0.00,weatherlink.com 1.10,2013-09-11 00:59:00,
2013-09-10 21:14:00,68.1,65.0,30.14,East,92,0.0,5.0,90,0.00,,,0.00,weatherlink.com 1.10,2013-09-11 01:14:00,
2013-09-10 21:29:00,68.2,65.0,30.14,SSE,160,3.0,7.0,90,0.00,,,0.00,weatherlink.com 1.10,2013-09-11 01:29:00,
2013-09-10 21:44:00,68.2,65.0,30.13,SE,124,0.0,6.0,90,0.00,,,0.00,weatherlink.com 1.10,2013-09-11 01:44:00,
2013-09-10 21:59:00,68.3,66.0,30.14,West,272,2.0,7.0,91,0.00,,,0.00,weatherlink.com 1.10,2013-09-11 01:59:00,
2013-09-10 22:15:00,68.7,66.0,30.13,South,183,1.0,6.0,91,0.00,,,0.00,weatherlink.com 1.10,2013-09-11 02:15:00,
2013-09-10 22:29:00,69.1,66.0,30.13,SE,139,2.0,8.0,91,0.00,,,0.00,weatherlink.com 1.10,2013-09-11 02:29:00,
2013-09-10 22:44:00,69.3,67.0,30.13,SSE,155,7.0,7.0,91,0.00,,,0.00,weatherlink.com 1.10,2013-09-11 02:44:00,
2013-09-10 22:59:00,69.1,66.0,30.13,SSE,150,1.0,8.0,91,0.00,,,0.00,weatherlink.com 1.10,2013-09-11 02:59:00,
2013-09-10 23:14:00,69.1,67.0,30.13,SSE,157,3.0,7.0,92,0.00,,,0.00,weatherlink.com 1.10,2013-09-11 03:14:00,
2013-09-10 23:29:00,69.1,67.0,30.13,NW,305,2.0,6.0,92,0.00,,,0.00,weatherlink.com 1.10,2013-09-11 03:29:00,
2013-09-10 23:44:00,69.5,68.0,30.14,SSW,211,0.0,8.0,93,0.00,,,0.00,weatherlink.com 1.10,2013-09-11 03:44:00,
2013-09-10 23:59:00,69.9,68.0,30.13,WNW,292,3.0,8.0,93,0.00,,,0.00,weatherlink.com 1.10,2013-09-11 03:59:00,